Tracking 23099 objects as of 13-May-2021
HD Live streaming from Space Station
objects crossing your sky now

ATLAS F R/B

Track ATLAS F R/B now!
10-day predictions


NORAD ID: 11142
Int'l Code: 1978-112B
Perigee: 939.3 km
Apogee: 13,950.3 km
Inclination: 64.2 °
Period: 269.4 minutes
Semi major axis: 13815 km
RCS: 1.5941 m2 (large)
Launch date: December 11, 1978
Source: United States (US)
Launch site: AIR FORCE WESTERN TEST RANGE (AFWTR)

Note: This is a ROCKET BODY
aabbcc
Your satellite tracking list
Your tracking list is empty




NASA's NSSDC Master Catalog

Two Line Element Set (TLE):
1 11142U 78112B   21132.42394778 -.00000057  00000-0 -22477-3 0  9990
2 11142  64.1898 296.2332 4708737 307.7857  30.8494  5.34613522816146
Source of the keplerian elements: AFSPC